DAL440 KSLC-KDEN

Flight info

Callsign DAL440
Flight time N/A
Altitude 37000
Route RUGGD3 PERTY KAMPR LONGZ4
Aircraft B764/H-SDE3FGHIM3RWXY/LB1

Departure

Time N/A
Airport Salt Lake City International Airport (KSLC)

Arrival

Time 2026-05-06 03:26
Airport Denver International Airport (KDEN)
Time Latitude Longitude Altitude Speed Heading
2026-05-06 02:51 40.60472 -108.03829 36899 ft 505 kts 94°
2026-05-06 02:51 40.60141 -107.99236 36898 ft 505 kts 94°
2026-05-06 02:52 40.59472 -107.90047 36902 ft 507 kts 94°
2026-05-06 02:52 40.58793 -107.80811 36909 ft 506 kts 94°
2026-05-06 02:53 40.58110 -107.71623 36925 ft 506 kts 94°
2026-05-06 02:53 40.57420 -107.62396 36927 ft 508 kts 94°
2026-05-06 02:54 40.56729 -107.53183 36924 ft 507 kts 94°
2026-05-06 02:54 40.56027 -107.43953 36914 ft 508 kts 94°
2026-05-06 02:55 40.55320 -107.34746 36912 ft 507 kts 95°
2026-05-06 02:55 40.54604 -107.25516 36907 ft 509 kts 95°
2026-05-06 02:56 40.53878 -107.16261 36909 ft 510 kts 95°
2026-05-06 02:56 40.53144 -107.07005 36899 ft 511 kts 95°
2026-05-06 02:57 40.52401 -106.97733 36891 ft 511 kts 95°
2026-05-06 02:57 40.51651 -106.88451 36883 ft 512 kts 95°
2026-05-06 02:58 40.50892 -106.79157 36894 ft 514 kts 95°
2026-05-06 02:58 40.50126 -106.69874 36930 ft 512 kts 96°
2026-05-06 02:59 40.49353 -106.60602 36944 ft 513 kts 96°
2026-05-06 02:59 40.48564 -106.51289 36947 ft 514 kts 96°
2026-05-06 03:00 40.47733 -106.41995 36957 ft 513 kts 96°
2026-05-06 03:00 40.46897 -106.32703 36948 ft 514 kts 97°
2026-05-06 03:01 40.46048 -106.23364 36931 ft 513 kts 97°
2026-05-06 03:01 40.45201 -106.14069 36915 ft 514 kts 97°
2026-05-06 03:01 40.44800 -106.09432 36720 ft 512 kts 96°
2026-05-06 03:02 40.44395 -106.04791 36113 ft 515 kts 96°
2026-05-06 03:02 40.43985 -106.00134 35732 ft 513 kts 96°
2026-05-06 03:02 40.43576 -105.95485 35378 ft 513 kts 96°
2026-05-06 03:02 40.43114 -105.90846 35025 ft 514 kts 100°
2026-05-06 03:03 40.42413 -105.86264 34736 ft 512 kts 101°
2026-05-06 03:03 40.41707 -105.81721 34144 ft 509 kts 101°
2026-05-06 03:03 40.41001 -105.77192 33159 ft 510 kts 102°
2026-05-06 03:03 40.40292 -105.72683 32187 ft 506 kts 102°
2026-05-06 03:04 40.39598 -105.68285 32123 ft 481 kts 102°
2026-05-06 03:04 40.38924 -105.64039 31412 ft 476 kts 102°
2026-05-06 03:04 40.38252 -105.59821 30706 ft 471 kts 103°
2026-05-06 03:04 40.37586 -105.55659 29937 ft 466 kts 103°
2026-05-06 03:05 40.36923 -105.51523 29200 ft 461 kts 103°
2026-05-06 03:05 40.36269 -105.47447 28433 ft 457 kts 103°
2026-05-06 03:05 40.35619 -105.43410 27754 ft 452 kts 103°
2026-05-06 03:05 40.34813 -105.39467 27083 ft 444 kts 112°
2026-05-06 03:06 40.33538 -105.35863 26665 ft 428 kts 125°
2026-05-06 03:06 40.31922 -105.32712 26615 ft 407 kts 129°
2026-05-06 03:06 40.30276 -105.29710 26068 ft 403 kts 131°
2026-05-06 03:06 40.28616 -105.26787 25475 ft 401 kts 131°
2026-05-06 03:07 40.26940 -105.23894 25025 ft 394 kts 132°
2026-05-06 03:07 40.25283 -105.21064 24465 ft 392 kts 133°
2026-05-06 03:07 40.23625 -105.18254 23954 ft 390 kts 132°
2026-05-06 03:07 40.21976 -105.15468 23518 ft 386 kts 132°
2026-05-06 03:08 40.20344 -105.12715 23083 ft 383 kts 133°
2026-05-06 03:08 40.18714 -105.09974 22622 ft 380 kts 133°
2026-05-06 03:08 40.17095 -105.07252 22147 ft 379 kts 133°
2026-05-06 03:08 40.15483 -105.04539 21740 ft 377 kts 132°
2026-05-06 03:09 40.13820 -105.01927 21268 ft 373 kts 140°
2026-05-06 03:09 40.11977 -104.99577 20861 ft 370 kts 141°
2026-05-06 03:09 40.10153 -104.97237 20535 ft 366 kts 141°
2026-05-06 03:09 40.08336 -104.94901 20080 ft 367 kts 141°
2026-05-06 03:10 40.06528 -104.92576 19742 ft 365 kts 141°
2026-05-06 03:10 40.04731 -104.90264 19403 ft 362 kts 140°
2026-05-06 03:10 40.02938 -104.87959 19021 ft 361 kts 141°
2026-05-06 03:10 40.01151 -104.85665 18648 ft 360 kts 141°
2026-05-06 03:11 39.99352 -104.83410 18287 ft 355 kts 147°
2026-05-06 03:11 39.97315 -104.81729 17954 ft 342 kts 164°
2026-05-06 03:11 39.95079 -104.80933 17575 ft 329 kts 181°
2026-05-06 03:11 39.92817 -104.80787 17198 ft 324 kts 185°
2026-05-06 03:12 39.90573 -104.80731 16916 ft 320 kts 186°
2026-05-06 03:12 39.88349 -104.80726 16536 ft 320 kts 186°
2026-05-06 03:12 39.86129 -104.80748 16181 ft 318 kts 186°
2026-05-06 03:12 39.83921 -104.80786 15887 ft 314 kts 186°
2026-05-06 03:13 39.81777 -104.80826 15881 ft 301 kts 187°
2026-05-06 03:13 39.79722 -104.80872 15862 ft 290 kts 187°
2026-05-06 03:13 39.77737 -104.80901 15839 ft 279 kts 186°
2026-05-06 03:13 39.75823 -104.80913 15783 ft 271 kts 186°
2026-05-06 03:14 39.73954 -104.80930 15601 ft 268 kts 186°
2026-05-06 03:14 39.72084 -104.80948 15358 ft 267 kts 186°
2026-05-06 03:14 39.70226 -104.80966 15151 ft 265 kts 186°
2026-05-06 03:14 39.68377 -104.80983 14908 ft 265 kts 186°
2026-05-06 03:15 39.66540 -104.81000 14686 ft 264 kts 186°
2026-05-06 03:15 39.64705 -104.81019 14448 ft 263 kts 185°
2026-05-06 03:15 39.62876 -104.81036 14227 ft 262 kts 185°
2026-05-06 03:15 39.61058 -104.81053 14007 ft 261 kts 185°
2026-05-06 03:16 39.59246 -104.81069 13771 ft 260 kts 185°
2026-05-06 03:16 39.57446 -104.81086 13558 ft 258 kts 184°
2026-05-06 03:16 39.55653 -104.81103 13310 ft 257 kts 184°
2026-05-06 03:16 39.53862 -104.81121 13068 ft 257 kts 184°
2026-05-06 03:17 39.52072 -104.81110 12825 ft 258 kts 176°
2026-05-06 03:17 39.50373 -104.80372 12567 ft 263 kts 146°
2026-05-06 03:17 39.49151 -104.78632 12339 ft 265 kts 116°
2026-05-06 03:17 39.48718 -104.76337 12111 ft 265 kts 90°
2026-05-06 03:18 39.48772 -104.73973 11981 ft 262 kts 86°
2026-05-06 03:18 39.49186 -104.71700 11736 ft 261 kts 59°
2026-05-06 03:18 39.50376 -104.69971 11520 ft 257 kts 32°
2026-05-06 03:18 39.51962 -104.68949 11267 ft 255 kts
2026-05-06 03:19 39.53720 -104.68906 11034 ft 253 kts 356°
2026-05-06 03:19 39.55488 -104.68968 10805 ft 253 kts 359°
2026-05-06 03:19 39.57244 -104.68992 10586 ft 252 kts 359°
2026-05-06 03:19 39.58996 -104.69004 10315 ft 252 kts 360°
2026-05-06 03:20 39.62497 -104.69002 9825 ft 246 kts
2026-05-06 03:20 39.64145 -104.68992 9932 ft 230 kts
2026-05-06 03:20 39.65740 -104.68974 9565 ft 228 kts
2026-05-06 03:21 39.67292 -104.68953 9313 ft 215 kts
2026-05-06 03:21 39.68757 -104.68937 8959 ft 206 kts 359°
2026-05-06 03:21 39.70165 -104.68912 8669 ft 199 kts 359°
2026-05-06 03:21 39.71547 -104.68901 8353 ft 197 kts
2026-05-06 03:22 39.72910 -104.68885 8109 ft 192 kts
2026-05-06 03:22 39.74165 -104.68864 7772 ft 168 kts
2026-05-06 03:22 39.75227 -104.68855 7519 ft 140 kts 359°
2026-05-06 03:22 39.76212 -104.68844 7354 ft 145 kts 359°
2026-05-06 03:23 39.77255 -104.68829 7198 ft 154 kts
2026-05-06 03:23 39.78321 -104.68816 6997 ft 153 kts 359°
2026-05-06 03:23 39.79395 -104.68807 6817 ft 154 kts 360°
2026-05-06 03:23 39.80453 -104.68794 6579 ft 149 kts 359°
2026-05-06 03:24 39.81468 -104.68780 6359 ft 143 kts 359°
2026-05-06 03:24 39.82462 -104.68766 6165 ft 142 kts 360°
2026-05-06 03:24 39.83467 -104.68758 5982 ft 145 kts 360°
2026-05-06 03:24 39.84480 -104.68746 5780 ft 146 kts 360°
2026-05-06 03:25 39.85489 -104.68731 5591 ft 143 kts 360°
2026-05-06 03:25 39.86490 -104.68716 5404 ft 143 kts 360°
2026-05-06 03:25 39.87448 -104.68708 5366 ft 127 kts
2026-05-06 03:25 39.88132 -104.68700 5366 ft 78 kts
2026-05-06 03:26 39.88493 -104.68695 5366 ft 28 kts 360°
2026-05-06 03:26 39.88654 -104.68693 5366 ft 17 kts 360°
2026-05-06 03:26 39.88754 -104.68673 5367 ft 11 kts 27°
2026-05-06 03:26 39.88821 -104.68620 5368 ft 11 kts 31°
2026-05-06 03:27 39.88890 -104.68565 5368 ft 7 kts 40°
2026-05-06 03:27 39.88896 -104.68501 5367 ft 8 kts 119°
2026-05-06 03:27 39.88849 -104.68477 5367 ft 8 kts 180°
2026-05-06 03:27 39.88781 -104.68478 5368 ft 11 kts 180°
2026-05-06 03:28 39.88695 -104.68479 5368 ft 13 kts 180°
2026-05-06 03:28 39.88591 -104.68480 5369 ft 16 kts 180°
2026-05-06 03:28 39.88463 -104.68482 5368 ft 20 kts 180°
2026-05-06 03:28 39.88318 -104.68483 5367 ft 22 kts 180°
2026-05-06 03:29 39.88161 -104.68485 5365 ft 23 kts 180°
2026-05-06 03:29 39.88002 -104.68487 5364 ft 20 kts 180°
2026-05-06 03:29 39.87860 -104.68488 5362 ft 20 kts 180°
2026-05-06 03:29 39.87712 -104.68490 5361 ft 21 kts 180°
2026-05-06 03:30 39.87557 -104.68493 5359 ft 22 kts 180°
2026-05-06 03:30 39.87399 -104.68494 5361 ft 22 kts 180°
2026-05-06 03:30 39.87247 -104.68495 5363 ft 21 kts 180°
2026-05-06 03:30 39.87097 -104.68497 5365 ft 21 kts 180°
2026-05-06 03:31 39.86950 -104.68500 5366 ft 20 kts 180°
2026-05-06 03:31 39.86806 -104.68500 5368 ft 20 kts 180°
2026-05-06 03:31 39.86665 -104.68503 5370 ft 20 kts 181°
2026-05-06 03:31 39.86560 -104.68505 5371 ft 6 kts 180°
2026-05-06 03:32 39.86512 -104.68505 5372 ft 7 kts 180°
2026-05-06 03:32 39.86457 -104.68506 5372 ft 8 kts 180°
2026-05-06 03:32 39.86400 -104.68506 5374 ft 8 kts 180°
2026-05-06 03:32 39.86341 -104.68506 5375 ft 8 kts 180°
2026-05-06 03:33 39.86277 -104.68507 5376 ft 10 kts 180°
2026-05-06 03:33 39.86194 -104.68508 5376 ft 13 kts 180°
2026-05-06 03:33 39.86093 -104.68509 5376 ft 15 kts 180°
2026-05-06 03:33 39.85974 -104.68511 5376 ft 18 kts 180°
2026-05-06 03:34 39.85837 -104.68512 5376 ft 20 kts 180°
2026-05-06 03:34 39.85684 -104.68514 5376 ft 18 kts 180°
2026-05-06 03:34 39.85617 -104.68500 5376 ft 9 kts 145°
2026-05-06 03:34 39.85597 -104.68418 5376 ft 10 kts 88°
2026-05-06 03:35 39.85597 -104.68319 5377 ft 10 kts 90°
2026-05-06 03:35 39.85597 -104.68228 5379 ft 9 kts 90°
2026-05-06 03:35 39.85596 -104.68153 5382 ft 6 kts 98°
2026-05-06 03:35 39.85575 -104.68104 5382 ft 5 kts 147°
2026-05-06 03:36 39.85533 -104.68096 5382 ft 7 kts 176°
2026-05-06 03:36 39.85491 -104.68093 5382 ft 5 kts 179°
2026-05-06 03:36 39.85466 -104.68094 5382 ft 0 kts 180°